Tracking 30510 objects as of 22-May-2025
HD Live streaming from Space Station
objects crossing your sky now

STRIX-4

Track STRIX-4 now!
10-day predictions


NORAD ID: 60352
Int'l Code: 2024-137A
Perigee: 505.5 km
Apogee: 526.2 km
Inclination: 43.0 °
Period: 94.8 minutes
Semi major axis: 6886 km
RCS: Unknown
Launch date: August 2, 2024
Source: Japan (JPN)
Launch site: Rocket Lab Launch Complex (RLLC)
Your satellite tracking list
Your tracking list is empty




NASA's NSSDC Master Catalog

Two Line Element Set (TLE):
1 60352U 24137A   25141.85962145  .00005993  00000-0  29098-3 0  9993
2 60352  43.0219 326.4335 0015007 276.7454  83.1687 15.19059115 44267
Source of the keplerian elements: AFSPC